QPF
0.04 0.04 0.04 0.05 0.05 0.05 0.06 0.07 0.07 0.08 0.07 0.05 0.05 0.05 0.04 0.05 0.07 0.07 0.07 0.05 0.04 0.06 0.11 0.12 0.12 0.12 0.13 0.13 0.13 0.12 0.11 0.09 0.07 0.05 0.06 0.09 0.12 0.19 0.18 0.14 0.10 0.07 0.06
0.04 0.05 0.03 0.05 0.05 0.05 0.06 0.07 0.07 0.08 0.07 0.06 0.05 0.06 0.06 0.06 0.06 0.07 0.06 0.06 0.05 0.09 0.13 0.12 0.13 0.15 0.15 0.15 0.14 0.13 0.10 0.09 0.08 0.07 0.06 0.05 0.08 0.15 0.19 0.16 0.11 0.07 0.07
0.04 0.03 0.03 0.04 0.05 0.06 0.05 0.06 0.07 0.08 0.08 0.08 0.08 0.07 0.08 0.08 0.08 0.08 0.07 0.06 0.05 0.07 0.08 0.11 0.17 0.19 0.20 0.20 0.19 0.15 0.11 0.08 0.07 0.06 0.05 0.04 0.04 0.08 0.15 0.16 0.13 0.10 0.09
0.03 0.02 0.04 0.05 0.06 0.07 0.07 0.07 0.08 0.08 0.10 0.11 0.11 0.08 0.07 0.07 0.06 0.06 0.05 0.04 0.04 0.04 0.05 0.06 0.11 0.18 0.20 0.17 0.14 0.13 0.10 0.08 0.06 0.06 0.05 0.05 0.05 0.07 0.10 0.13 0.15 0.13 0.10
0.03 0.04 0.05 0.05 0.04 0.05 0.06 0.05 0.04 0.06 0.07 0.07 0.06 0.04 0.05 0.05 0.05 0.04 0.05 0.04 0.04 0.05 0.06 0.08 0.11 0.12 0.09 0.06 0.07 0.08 0.09 0.07 0.06 0.06 0.06 0.08 0.09 0.10 0.11 0.11 0.11 0.10 0.09
0.03 0.04 0.05 0.05 0.04 0.05 0.05 0.04 0.04 0.05 0.05 0.05 0.04 0.04 0.04 0.04 0.03 0.03 0.05 0.04 0.04 0.03 0.03 0.04 0.06 0.07 0.06 0.04 0.04 0.06 0.09 0.09 0.08 0.07 0.09 0.10 0.09 0.08 0.09 0.09 0.07 0.07 0.07
0.03 0.04 0.05 0.06 0.04 0.04 0.05 0.03 0.04 0.05 0.05 0.04 0.05 0.04 0.04 0.03 0.04 0.03 0.03 0.04 0.03 0.03 0.03 0.03 0.04 0.05 0.04 0.04 0.05 0.06 0.11 0.17 0.17 0.11 0.08 0.08 0.06 0.05 0.06 0.07 0.05 0.05 0.05
0.03 0.03 0.05 0.06 0.04 0.04 0.04 0.04 0.04 0.05 0.06 0.04 0.05 0.04 0.04 0.04 0.03 0.02 0.02 0.03 0.03 0.02 0.03 0.03 0.02 0.03 0.02 0.03 0.05 0.06 0.06 0.08 0.13 0.11 0.07 0.06 0.05 0.05 0.06 0.05 0.05 0.04 0.04
0.03 0.04 0.04 0.06 0.05 0.04 0.03 0.03 0.04 0.07 0.08 0.06 0.04 0.04 0.06 0.06 0.04 0.03 0.02 0.02 0.02 0.02 0.02 0.02 0.03 0.03 0.03 0.03 0.03 0.04 0.04 0.05 0.08 0.09 0.07 0.06 0.06 0.05 0.05 0.05 0.04 0.05 0.05
0.04 0.05 0.05 0.07 0.09 0.06 0.04 0.04 0.03 0.06 0.08 0.07 0.05 0.03 0.04 0.05 0.05 0.04 0.03 0.02 0.01 0.02 0.02 0.01 0.02 0.03 0.03 0.04 0.03 0.03 0.02 0.02 0.04 0.06 0.08 0.08 0.08 0.08 0.07 0.07 0.06 0.06 0.06
0.03 0.04 0.05 0.06 0.08 0.07 0.06 0.05 0.04 0.04 0.04 0.06 0.06 0.04 0.04 0.05 0.04 0.05 0.05 0.04 0.02 0.01 0.01 0.01 0.02 0.02 0.03 0.04 0.04 0.03 0.01 0.01 0.01 0.02 0.05 0.06 0.05 0.06 0.07 0.07 0.07 0.08 0.09
0.03 0.02 0.04 0.05 0.06 0.07 0.07 0.06 0.06 0.04 0.03 0.05 0.05 0.04 0.04 0.05 0.05 0.06 0.05 0.04 0.03 0.02 0.01 0.01 0.02 0.03 0.03 0.03 0.03 0.02 0.01 0.01 0.01 0.01 0.01 0.03 0.04 0.04 0.05 0.06 0.07 0.08 0.10
0.03 0.03 0.03 0.05 0.08 0.09 0.09 0.08 0.08 0.06 0.04 0.05 0.05 0.04 0.04 0.05 0.05 0.05 0.05 0.04 0.03 0.02 0.02 0.02 0.02 0.05 0.05 0.03 0.03 0.03 0.02 0.01 0.01 0.01 0.01 0.01 0.03 0.04 0.05 0.07 0.08 0.09 0.08
0.03 0.04 0.04 0.04 0.05 0.08 0.10 0.09 0.08 0.08 0.05 0.04 0.03 0.05 0.06 0.04 0.03 0.04 0.05 0.06 0.06 0.04 0.03 0.03 0.04 0.04 0.05 0.04 0.02 0.02 0.02 0.02 0.01 0.01 0.02 0.02 0.02 0.03 0.04 0.06 0.09 0.11 0.12
0.02 0.03 0.02 0.02 0.04 0.07 0.10 0.11 0.09 0.09 0.07 0.05 0.03 0.04 0.04 0.03 0.03 0.03 0.04 0.05 0.06 0.06 0.04 0.04 0.05 0.05 0.03 0.02 0.01 0.02 0.02 0.02 0.01 0.01 0.01 0.01 0.01 0.02 0.03 0.04 0.04 0.05 0.06
0.03 0.03 0.03 0.03 0.03 0.05 0.07 0.09 0.10 0.09 0.06 0.04 0.03 0.03 0.03 0.02 0.03 0.04 0.04 0.04 0.05 0.05 0.05 0.04 0.06 0.03 0.02 0.01 0.01 0.02 0.02 0.02 0.01 0.01 0.01 0.01 0.01 0.01 0.02 0.04 0.03 0.01 0.01
0.02 0.02 0.03 0.04 0.04 0.05 0.06 0.07 0.09 0.07 0.06 0.04 0.02 0.02 0.02 0.03 0.03 0.03 0.03 0.04 0.04 0.05 0.05 0.06 0.05 0.03 0.02 0.02 0.02 0.01 0.01 0.01 0.01 0.01 0.01 0.01 0.01 0.01 0.02 0.04 0.02 0.01 0.00
0.01 0.01 0.03 0.03 0.03 0.04 0.05 0.04 0.05 0.05 0.04 0.04 0.03 0.03 0.02 0.02 0.03 0.04 0.04 0.04 0.05 0.06 0.07 0.07 0.05 0.03 0.02 0.02 0.02 0.01 0.01 0.01 0.01 0.01 0.01 0.01 0.01 0.02 0.03 0.03 0.02 0.01 0.01
0.01 0.01 0.02 0.03 0.03 0.03 0.04 0.05 0.06 0.05 0.04 0.04 0.03 0.03 0.03 0.03 0.03 0.03 0.06 0.07 0.07 0.08 0.07 0.06 0.04 0.03 0.01 0.01 0.02 0.01 0.01 0.01 0.01 0.01 0.01 0.01 0.01 0.01 0.01 0.02 0.02 0.01 0.01
0.01 0.01 0.02 0.03 0.04 0.05 0.05 0.05 0.06 0.05 0.04 0.03 0.02 0.02 0.03 0.03 0.03 0.03 0.04 0.05 0.04 0.04 0.04 0.03 0.03 0.02 0.02 0.02 0.02 0.02 0.02 0.02 0.02 0.01 0.01 0.01 0.01 0.01 0.01 0.01 0.00 0.01 0.01
0.01 0.01 0.02 0.02 0.03 0.03 0.03 0.04 0.05 0.03 0.03 0.02 0.02 0.02 0.02 0.02 0.03 0.02 0.02 0.02 0.02 0.02 0.02 0.02 0.02 0.02 0.01 0.02 0.02 0.02 0.02 0.02 0.02 0.02 0.03 0.02 0.02 0.02 0.01 0.01 0.01 0.01 0.01
0.00 0.01 0.01 0.02 0.01 0.01 0.02 0.03 0.03 0.03 0.03 0.03 0.03 0.02 0.02 0.02 0.01 0.01 0.01 0.01 0.02 0.02 0.02 0.02 0.02 0.02 0.01 0.01 0.02 0.02 0.02 0.02 0.02 0.02 0.03 0.03 0.02 0.02 0.02 0.02 0.02 0.01 0.01
0.01 0.01 0.01 0.01 0.02 0.02 0.02 0.03 0.03 0.04 0.04 0.04 0.04 0.04 0.03 0.02 0.01 0.01 0.01 0.02 0.01 0.01 0.01 0.01 0.01 0.02 0.01 0.02 0.02 0.02 0.02 0.02 0.02 0.03 0.03 0.03 0.03 0.02 0.02 0.02 0.02 0.02 0.02
0.02 0.01 0.01 0.02 0.02 0.02 0.01 0.02 0.02 0.03 0.03 0.04 0.04 0.04 0.03 0.02 0.02 0.02 0.02 0.02 0.01 0.01 0.00 0.00 0.01 0.02 0.02 0.02 0.02 0.02 0.02 0.02 0.02 0.02 0.03 0.03 0.03 0.04 0.03 0.02 0.02 0.02 0.02
0.01 0.01 0.01 0.01 0.02 0.02 0.01 0.01 0.01 0.02 0.03 0.03 0.03 0.03 0.03 0.03 0.03 0.02 0.03 0.03 0.02 0.02 0.01 0.01 0.01 0.01 0.01 0.01 0.01 0.01 0.02 0.03 0.03 0.03 0.03 0.04 0.04 0.04 0.04 0.03 0.02 0.02 0.02
0.01 0.01 0.01 0.02 0.02 0.02 0.01 0.01 0.02 0.02 0.02 0.03 0.04 0.05 0.06 0.05 0.05 0.03 0.02 0.03 0.02 0.02 0.02 0.01 0.01 0.01 0.01 0.02 0.02 0.03 0.03 0.04 0.04 0.04 0.04 0.04 0.04 0.05 0.05 0.04 0.03 0.02 0.02
MSLP
1016.91 1017.16 1017.39 1017.60 1017.80 1018.00 1018.21 1018.42 1018.61 1018.78 1018.90 1018.96 1018.98 1018.96 1018.93 1018.93 1018.99 1019.15 1019.39 1019.72 1020.10 1020.47 1020.81 1021.06 1021.21 1021.25 1021.22 1021.14 1021.04 1020.96 1020.93 1020.94 1021.00 1021.10 1021.23 1021.37 1021.51 1021.66 1021.81 1021.96 1022.11 1022.26 1022.39
1016.72 1016.97 1017.19 1017.40 1017.61 1017.83 1018.07 1018.33 1018.59 1018.83 1019.02 1019.14 1019.20 1019.20 1019.17 1019.14 1019.15 1019.24 1019.42 1019.68 1020.00 1020.35 1020.69 1020.98 1021.19 1021.31 1021.36 1021.36 1021.33 1021.29 1021.28 1021.29 1021.34 1021.42 1021.52 1021.63 1021.75 1021.89 1022.03 1022.17 1022.32 1022.47 1022.60
1016.40 1016.67 1016.91 1017.14 1017.37 1017.64 1017.93 1018.26 1018.59 1018.91 1019.17 1019.36 1019.46 1019.48 1019.44 1019.37 1019.32 1019.33 1019.42 1019.59 1019.85 1020.16 1020.48 1020.79 1021.06 1021.26 1021.39 1021.48 1021.52 1021.55 1021.58 1021.62 1021.68 1021.75 1021.83 1021.93 1022.04 1022.16 1022.29 1022.43 1022.57 1022.72 1022.85
1015.97 1016.26 1016.52 1016.79 1017.07 1017.40 1017.76 1018.16 1018.58 1018.97 1019.31 1019.55 1019.70 1019.73 1019.68 1019.58 1019.47 1019.40 1019.40 1019.49 1019.67 1019.92 1020.22 1020.54 1020.84 1021.10 1021.32 1021.48 1021.61 1021.71 1021.80 1021.88 1021.96 1022.05 1022.13 1022.23 1022.33 1022.44 1022.56 1022.69 1022.82 1022.96 1023.08
1015.42 1015.73 1016.04 1016.35 1016.70 1017.08 1017.52 1018.00 1018.49 1018.95 1019.35 1019.66 1019.84 1019.90 1019.85 1019.72 1019.57 1019.43 1019.36 1019.37 1019.48 1019.68 1019.95 1020.26 1020.58 1020.88 1021.16 1021.39 1021.60 1021.77 1021.92 1022.05 1022.17 1022.29 1022.39 1022.49 1022.59 1022.69 1022.79 1022.90 1023.02 1023.14 1023.25
1014.79 1015.12 1015.46 1015.83 1016.23 1016.68 1017.19 1017.72 1018.27 1018.80 1019.25 1019.60 1019.82 1019.91 1019.87 1019.75 1019.58 1019.42 1019.30 1019.26 1019.32 1019.47 1019.71 1019.99 1020.31 1020.64 1020.95 1021.24 1021.50 1021.74 1021.95 1022.14 1022.31 1022.46 1022.59 1022.70 1022.79 1022.88 1022.96 1023.05 1023.14 1023.24 1023.33
1014.13 1014.47 1014.83 1015.23 1015.68 1016.18 1016.74 1017.32 1017.91 1018.47 1018.96 1019.35 1019.60 1019.73 1019.73 1019.63 1019.48 1019.33 1019.21 1019.15 1019.18 1019.31 1019.51 1019.77 1020.08 1020.41 1020.73 1021.06 1021.36 1021.65 1021.92 1022.16 1022.38 1022.57 1022.72 1022.84 1022.94 1023.01 1023.07 1023.13 1023.18 1023.24 1023.31
1013.49 1013.80 1014.17 1014.59 1015.07 1015.60 1016.18 1016.79 1017.40 1017.97 1018.48 1018.89 1019.18 1019.35 1019.40 1019.36 1019.26 1019.15 1019.06 1019.02 1019.06 1019.17 1019.35 1019.60 1019.89 1020.20 1020.53 1020.87 1021.20 1021.52 1021.83 1022.12 1022.39 1022.62 1022.80 1022.94 1023.03 1023.09 1023.12 1023.14 1023.15 1023.18 1023.21
1012.89 1013.17 1013.52 1013.94 1014.43 1014.97 1015.55 1016.15 1016.75 1017.33 1017.84 1018.26 1018.58 1018.79 1018.90 1018.92 1018.90 1018.86 1018.83 1018.84 1018.91 1019.03 1019.21 1019.45 1019.72 1020.02 1020.34 1020.67 1021.01 1021.36 1021.71 1022.04 1022.35 1022.61 1022.82 1022.98 1023.07 1023.12 1023.13 1023.11 1023.09 1023.07 1023.08
1012.35 1012.57 1012.89 1013.29 1013.76 1014.29 1014.86 1015.44 1016.02 1016.58 1017.08 1017.50 1017.84 1018.09 1018.26 1018.36 1018.42 1018.46 1018.51 1018.59 1018.70 1018.85 1019.04 1019.27 1019.53 1019.81 1020.12 1020.45 1020.80 1021.16 1021.53 1021.90 1022.24 1022.54 1022.79 1022.96 1023.07 1023.11 1023.10 1023.07 1023.02 1022.98 1022.96
1011.84 1012.00 1012.28 1012.65 1013.09 1013.59 1014.14 1014.69 1015.25 1015.78 1016.26 1016.68 1017.03 1017.31 1017.53 1017.70 1017.84 1017.97 1018.10 1018.24 1018.41 1018.59 1018.81 1019.04 1019.29 1019.56 1019.86 1020.18 1020.53 1020.90 1021.29 1021.69 1022.07 1022.40 1022.68 1022.88 1023.01 1023.07 1023.06 1023.02 1022.96 1022.91 1022.88
1011.34 1011.44 1011.66 1011.99 1012.41 1012.88 1013.40 1013.93 1014.46 1014.96 1015.43 1015.84 1016.20 1016.51 1016.78 1017.00 1017.21 1017.41 1017.60 1017.81 1018.02 1018.25 1018.48 1018.72 1018.97 1019.23 1019.52 1019.83 1020.19 1020.57 1020.98 1021.39 1021.80 1022.18 1022.49 1022.73 1022.90 1022.98 1023.00 1022.98 1022.93 1022.89 1022.87
1010.81 1010.85 1011.03 1011.32 1011.70 1012.15 1012.65 1013.16 1013.67 1014.17 1014.62 1015.04 1015.41 1015.74 1016.03 1016.30 1016.56 1016.81 1017.06 1017.31 1017.57 1017.82 1018.07 1018.32 1018.57 1018.83 1019.11 1019.43 1019.78 1020.16 1020.58 1021.02 1021.46 1021.86 1022.22 1022.51 1022.72 1022.85 1022.91 1022.93 1022.92 1022.91 1022.91
1010.23 1010.21 1010.35 1010.60 1010.96 1011.40 1011.88 1012.39 1012.90 1013.39 1013.85 1014.27 1014.66 1015.00 1015.33 1015.63 1015.93 1016.22 1016.51 1016.79 1017.08 1017.36 1017.62 1017.88 1018.13 1018.39 1018.67 1018.98 1019.32 1019.71 1020.14 1020.59 1021.04 1021.48 1021.87 1022.20 1022.47 1022.65 1022.78 1022.85 1022.90 1022.93 1022.97
1009.60 1009.54 1009.63 1009.85 1010.19 1010.61 1011.09 1011.60 1012.12 1012.63 1013.10 1013.54 1013.95 1014.32 1014.67 1015.01 1015.33 1015.66 1015.98 1016.29 1016.60 1016.90 1017.18 1017.45 1017.70 1017.96 1018.23 1018.54 1018.87 1019.25 1019.67 1020.13 1020.59 1021.04 1021.46 1021.83 1022.15 1022.39 1022.58 1022.72 1022.83 1022.92 1023.00
1008.94 1008.83 1008.88 1009.07 1009.39 1009.80 1010.28 1010.81 1011.34 1011.86 1012.36 1012.83 1013.27 1013.67 1014.06 1014.43 1014.79 1015.14 1015.50 1015.84 1016.18 1016.50 1016.79 1017.07 1017.33 1017.59 1017.86 1018.15 1018.47 1018.83 1019.24 1019.67 1020.13 1020.58 1021.01 1021.41 1021.75 1022.05 1022.30 1022.50 1022.67 1022.82 1022.96
1008.29 1008.14 1008.15 1008.31 1008.61 1009.01 1009.48 1010.01 1010.55 1011.09 1011.62 1012.12 1012.59 1013.03 1013.45 1013.87 1014.27 1014.67 1015.07 1015.45 1015.82 1016.16 1016.48 1016.78 1017.05 1017.31 1017.57 1017.84 1018.15 1018.48 1018.85 1019.25 1019.68 1020.11 1020.53 1020.93 1021.29 1021.62 1021.91 1022.16 1022.39 1022.60 1022.79
1007.67 1007.49 1007.47 1007.60 1007.87 1008.25 1008.71 1009.23 1009.77 1010.32 1010.86 1011.38 1011.88 1012.36 1012.83 1013.30 1013.75 1014.21 1014.66 1015.09 1015.51 1015.90 1016.25 1016.57 1016.85 1017.11 1017.37 1017.62 1017.89 1018.19 1018.52 1018.87 1019.25 1019.64 1020.03 1020.41 1020.77 1021.10 1021.42 1021.71 1021.98 1022.24 1022.48
1007.11 1006.91 1006.87 1006.98 1007.23 1007.58 1008.01 1008.50 1009.03 1009.56 1010.10 1010.63 1011.15 1011.66 1012.18 1012.69 1013.21 1013.73 1014.24 1014.74 1015.21 1015.65 1016.04 1016.39 1016.70 1016.97 1017.21 1017.45 1017.69 1017.95 1018.22 1018.52 1018.84 1019.17 1019.51 1019.85 1020.19 1020.51 1020.83 1021.14 1021.44 1021.74 1022.02
1006.59 1006.40 1006.36 1006.46 1006.68 1007.00 1007.40 1007.85 1008.33 1008.84 1009.35 1009.87 1010.40 1010.94 1011.49 1012.05 1012.63 1013.21 1013.79 1014.36 1014.89 1015.38 1015.82 1016.20 1016.53 1016.81 1017.06 1017.28 1017.49 1017.71 1017.93 1018.17 1018.43 1018.70 1018.98 1019.27 1019.56 1019.86 1020.16 1020.47 1020.79 1021.12 1021.44
1006.09 1005.92 1005.90 1006.01 1006.22 1006.51 1006.87 1007.28 1007.71 1008.17 1008.65 1009.14 1009.66 1010.21 1010.78 1011.38 1012.01 1012.65 1013.29 1013.91 1014.50 1015.05 1015.53 1015.95 1016.31 1016.60 1016.85 1017.06 1017.25 1017.43 1017.61 1017.80 1018.00 1018.21 1018.43 1018.67 1018.92 1019.18 1019.46 1019.76 1020.09 1020.43 1020.79
1005.53 1005.42 1005.44 1005.57 1005.79 1006.07 1006.40 1006.77 1007.16 1007.57 1008.01 1008.47 1008.97 1009.51 1010.09 1010.72 1011.38 1012.06 1012.74 1013.41 1014.04 1014.63 1015.15 1015.60 1015.98 1016.29 1016.54 1016.75 1016.93 1017.09 1017.25 1017.40 1017.56 1017.72 1017.90 1018.08 1018.29 1018.51 1018.77 1019.06 1019.38 1019.74 1020.12
1004.85 1004.82 1004.90 1005.07 1005.31 1005.60 1005.93 1006.27 1006.64 1007.02 1007.42 1007.86 1008.34 1008.87 1009.46 1010.09 1010.76 1011.46 1012.17 1012.86 1013.52 1014.13 1014.67 1015.14 1015.54 1015.86 1016.13 1016.35 1016.53 1016.69 1016.84 1016.97 1017.11 1017.24 1017.38 1017.54 1017.71 1017.91 1018.14 1018.41 1018.73 1019.08 1019.47
1004.01 1004.04 1004.19 1004.42 1004.71 1005.03 1005.38 1005.73 1006.10 1006.48 1006.88 1007.31 1007.79 1008.32 1008.90 1009.53 1010.20 1010.90 1011.61 1012.30 1012.96 1013.57 1014.12 1014.60 1015.01 1015.35 1015.63 1015.87 1016.07 1016.25 1016.40 1016.54 1016.67 1016.80 1016.93 1017.07 1017.22 1017.39 1017.61 1017.86 1018.16 1018.50 1018.88
1002.99 1003.08 1003.28 1003.57 1003.91 1004.28 1004.67 1005.07 1005.47 1005.88 1006.31 1006.77 1007.27 1007.81 1008.40 1009.03 1009.70 1010.39 1011.07 1011.75 1012.39 1012.98 1013.52 1013.99 1014.41 1014.77 1015.07 1015.34 1015.57 1015.78 1015.96 1016.13 1016.28 1016.42 1016.55 1016.68 1016.82 1016.99 1017.18 1017.41 1017.69 1018.01 1018.37
1001.86 1001.96 1002.19 1002.51 1002.90 1003.33 1003.78 1004.24 1004.71 1005.19 1005.68 1006.20 1006.75 1007.32 1007.93 1008.57 1009.23 1009.90 1010.56 1011.19 1011.80 1012.36 1012.88 1013.35 1013.77 1014.14 1014.48 1014.78 1015.06 1015.31 1015.54 1015.75 1015.93 1016.09 1016.24 1016.38 1016.51 1016.67 1016.84 1017.05 1017.29 1017.58 1017.90
Thickness
5750 5749 5747 5746 5747 5747 5747 5746 5746 5745 5745 5745 5745 5744 5744 5743 5743 5742 5740 5737 5737 5737 5736 5736 5735 5735 5733 5732 5731 5729 5728 5728 5726 5725 5724 5724 5723 5723 5722 5721 5720 5719 5718
5747 5746 5745 5744 5744 5744 5744 5743 5742 5742 5743 5742 5742 5742 5741 5741 5739 5739 5739 5736 5735 5734 5734 5733 5733 5732 5731 5730 5729 5728 5727 5726 5724 5723 5722 5722 5721 5721 5720 5719 5718 5717 5716
5745 5744 5743 5742 5741 5741 5740 5740 5740 5740 5740 5740 5739 5739 5739 5738 5737 5736 5736 5736 5735 5733 5732 5731 5731 5730 5729 5728 5728 5726 5725 5724 5723 5722 5721 5720 5720 5719 5718 5717 5716 5715 5713
5743 5742 5742 5741 5738 5739 5739 5738 5738 5737 5736 5737 5737 5738 5737 5736 5735 5734 5735 5734 5734 5734 5731 5730 5728 5727 5726 5726 5725 5724 5723 5722 5721 5720 5720 5719 5718 5717 5716 5715 5714 5712 5711
5741 5740 5739 5738 5737 5738 5737 5737 5736 5735 5733 5733 5734 5734 5735 5735 5733 5734 5733 5732 5731 5731 5731 5728 5726 5725 5724 5723 5723 5722 5721 5720 5719 5718 5717 5716 5715 5715 5714 5713 5712 5710 5708
5739 5739 5738 5736 5737 5736 5734 5733 5732 5731 5731 5731 5733 5732 5732 5732 5732 5732 5731 5731 5729 5729 5728 5727 5726 5724 5722 5721 5720 5720 5719 5718 5717 5716 5715 5714 5713 5712 5711 5710 5709 5708 5706
5739 5738 5738 5735 5735 5733 5731 5731 5731 5729 5729 5729 5728 5727 5729 5730 5730 5729 5730 5729 5728 5727 5726 5725 5725 5724 5722 5719 5718 5718 5717 5716 5715 5713 5712 5711 5710 5709 5708 5707 5706 5704 5703
5738 5738 5735 5735 5733 5731 5729 5729 5728 5728 5727 5727 5726 5723 5722 5723 5725 5728 5727 5726 5726 5725 5724 5723 5722 5720 5721 5720 5717 5715 5714 5713 5712 5710 5709 5708 5707 5706 5704 5704 5702 5701 5700
5737 5735 5734 5733 5732 5731 5729 5727 5726 5725 5723 5725 5726 5723 5719 5717 5721 5724 5723 5724 5722 5722 5722 5721 5719 5718 5717 5716 5715 5713 5711 5710 5708 5707 5706 5705 5704 5702 5701 5700 5699 5698 5696
5735 5733 5732 5731 5729 5730 5727 5727 5726 5725 5722 5721 5722 5723 5722 5721 5717 5715 5719 5721 5720 5719 5719 5719 5717 5715 5713 5713 5711 5709 5708 5707 5706 5705 5704 5703 5701 5700 5698 5697 5696 5694 5693
5733 5732 5730 5729 5727 5727 5725 5724 5723 5723 5723 5721 5720 5719 5719 5719 5719 5715 5713 5715 5717 5718 5717 5715 5714 5713 5711 5709 5708 5706 5704 5703 5703 5702 5701 5700 5699 5697 5695 5694 5692 5691 5689
5732 5730 5729 5727 5726 5725 5723 5722 5722 5721 5720 5719 5718 5719 5718 5716 5715 5715 5712 5712 5712 5715 5714 5713 5712 5710 5708 5707 5705 5702 5701 5700 5699 5698 5698 5697 5696 5694 5692 5691 5689 5687 5685
5730 5727 5727 5724 5724 5722 5721 5720 5719 5718 5718 5716 5715 5716 5717 5717 5717 5715 5712 5711 5710 5712 5710 5711 5709 5707 5706 5704 5701 5699 5698 5697 5696 5695 5694 5693 5692 5690 5689 5688 5686 5684 5682
5728 5726 5724 5722 5721 5720 5719 5718 5718 5717 5715 5714 5714 5713 5714 5715 5715 5713 5711 5708 5706 5708 5707 5706 5706 5704 5702 5700 5697 5695 5695 5693 5692 5691 5690 5689 5688 5687 5685 5684 5682 5680 5678
5727 5724 5722 5720 5718 5717 5716 5715 5715 5713 5712 5712 5712 5711 5711 5712 5712 5712 5711 5710 5705 5701 5701 5701 5701 5700 5698 5696 5694 5693 5691 5689 5688 5687 5686 5685 5684 5683 5682 5680 5678 5676 5674
5723 5721 5719 5717 5715 5714 5713 5712 5712 5710 5709 5709 5708 5707 5707 5709 5709 5709 5708 5708 5707 5703 5699 5701 5698 5698 5695 5694 5691 5689 5687 5685 5684 5683 5682 5681 5680 5680 5679 5677 5675 5672 5670
5719 5717 5716 5714 5713 5711 5710 5708 5708 5707 5705 5705 5705 5704 5703 5703 5705 5705 5705 5705 5705 5702 5697 5696 5695 5693 5691 5689 5688 5686 5685 5683 5682 5679 5677 5676 5676 5676 5675 5673 5670 5668 5667
5716 5715 5713 5711 5710 5709 5707 5705 5704 5703 5702 5701 5700 5700 5699 5700 5698 5699 5700 5700 5700 5698 5696 5691 5690 5689 5686 5685 5684 5682 5682 5681 5679 5676 5674 5672 5671 5670 5670 5668 5666 5664 5663
5713 5711 5710 5708 5707 5706 5704 5703 5701 5700 5699 5698 5697 5696 5696 5695 5694 5694 5694 5695 5695 5695 5693 5690 5686 5685 5684 5682 5680 5679 5679 5676 5676 5674 5671 5669 5667 5666 5664 5663 5662 5660 5659
5709 5707 5706 5705 5704 5703 5701 5700 5699 5697 5696 5696 5695 5694 5693 5692 5690 5690 5689 5688 5689 5688 5686 5686 5684 5681 5680 5678 5676 5674 5674 5674 5673 5672 5670 5667 5665 5663 5661 5660 5658 5657 5655
5706 5704 5703 5701 5700 5699 5697 5695 5695 5695 5693 5692 5691 5690 5689 5687 5685 5685 5686 5684 5683 5683 5683 5681 5679 5677 5675 5672 5671 5671 5669 5669 5669 5669 5667 5667 5665 5662 5660 5657 5655 5654 5652
5701 5700 5698 5697 5695 5694 5689 5688 5689 5691 5690 5689 5687 5687 5686 5684 5681 5678 5677 5677 5676 5677 5676 5675 5674 5672 5669 5668 5666 5666 5665 5664 5663 5665 5662 5662 5662 5661 5659 5657 5653 5651 5649
5695 5694 5693 5693 5691 5687 5684 5684 5684 5686 5687 5685 5684 5683 5684 5682 5679 5678 5674 5671 5670 5669 5669 5670 5669 5668 5666 5664 5661 5660 5659 5659 5657 5659 5657 5658 5658 5657 5656 5654 5650 5647 5645
5690 5689 5689 5689 5687 5684 5680 5679 5680 5682 5683 5682 5681 5680 5678 5677 5675 5672 5671 5669 5668 5667 5666 5666 5665 5664 5662 5659 5657 5656 5654 5653 5654 5655 5653 5651 5653 5652 5653 5650 5647 5644 5641
5686 5686 5686 5685 5683 5680 5676 5675 5675 5679 5679 5678 5677 5675 5673 5671 5667 5665 5666 5665 5664 5663 5661 5659 5657 5656 5653 5651 5650 5650 5650 5649 5650 5651 5650 5647 5647 5647 5648 5647 5644 5641 5638
5683 5683 5682 5681 5680 5678 5673 5671 5670 5677 5675 5674 5672 5671 5666 5665 5661 5659 5661 5660 5658 5657 5657 5656 5653 5651 5649 5647 5644 5644 5645 5644 5644 5645 5645 5642 5642 5641 5642 5644 5641 5638 5635